Weather History for KOCW - January, 2012

Change the Weather History Date:

Monday, January 9, 2012

  Actual Average (KEWN) Record (KEWN)
Temperature  
Mean Temperature 43 °F 44 °F  
Max Temperature 44 °F 54 °F 75 °F (1965)
Min Temperature 42 °F 34 °F 12 °F (1970)
Degree Days  
Heating Degree Days 22 21  
Month to date heating degree days 189  
Since 1 July heating degree days 1183  
Cooling Degree Days 0 0  
Month to date cooling degree days 0  
Year to date cooling degree days 0  
Moisture  
Dew Point 37 °F    
Average Humidity 78    
Maximum Humidity 81    
Minimum Humidity 71    
Precipitation  
Precipitation 0.31 in 0.13 in 1.13 in (1964)
Month to date precipitation 1.16  
Year to date precipitation 1.16  
Snow  
Snow 0.00 in - - ()
Month to date snowfall  
Since 1 July snowfall  
Snow Depth -    
Sea Level Pressure  
Sea Level Pressure 30.21 in    
Wind  
Wind Speed 4 mph (NE)    
Max Wind Speed 8 mph    
Max Gust Speed -    
Visibility 9 miles    
Events Rain    
T = Trace of Precipitation, MM = Missing Value Source: NWS Daily Summary

Daily Weather History Graph

Daily Weather History Graph

Search for Another Location

Airport or City:

Trip Planner

Search our weather history database for the weather conditions in past years. The results will help you decide how hot, cold, wet, or windy it might be!

Date:

Astronomy

Jan. 09, 2012 Rise Set
Actual Time 7:18 AM EST 5:12 PM EST
Civil Twilight 6:50 AM EST 5:40 PM EST
Nautical Twilight 6:18 AM EST 6:12 PM EST
Astronomical Twilight 5:47 AM EST 6:42 PM EST
Moon 5:54 PM EST (1/9) 7:18 AM EST (1/9)
Length of Visible Light 10h 50m
Length of Day
9h 54m
Full, 100% of the Moon is Illuminated
Jan 9
Full
Jan 16
Last Quarter
Jan 23
New
Jan 30
First Quarter
Feb 7
Full

Hourly Weather History & Observations

Time (EST) Temp. Windchill Dew Point Humidity Pressure Visibility Wind Dir Wind Speed Gust Speed Precip Events Conditions
12:15 AM 44.6 °F 42.2 °F 35.6 °F 71% 30.28 in 10.0 mi ENE 4.6 mph - N/A Rain Light Rain
12:35 AM 44.6 °F 43.1 °F 35.6 °F 71% 30.28 in 7.0 mi NE 3.5 mph - 0.02 in Rain Heavy Rain
12:55 AM 42.8 °F - 37.4 °F 81% 30.28 in 10.0 mi Calm Calm - 0.05 in Rain Light Rain
1:15 AM 42.8 °F - 37.4 °F 81% 30.28 in 7.0 mi Calm Calm - 0.02 in Rain Rain
1:35 AM 42.8 °F 41.1 °F 37.4 °F 81% 30.27 in 10.0 mi NE 3.5 mph - 0.03 in Rain Light Rain
1:55 AM 42.8 °F - 37.4 °F 81% 30.28 in 7.0 mi Calm Calm - 0.06 in Rain Rain
2:15 AM 42.8 °F - 37.4 °F 81% 30.28 in 10.0 mi Calm Calm - 0.01 in Rain Light Rain
2:35 AM 42.8 °F 39.3 °F 37.4 °F 81% 30.28 in 7.0 mi NE 5.8 mph - 0.04 in Rain Heavy Rain
2:55 AM 42.8 °F 38.0 °F 37.4 °F 81% 30.25 in 10.0 mi East 8.1 mph - 0.08 in Rain Rain
3:15 AM 42.8 °F 38.0 °F 37.4 °F 81% 30.26 in 7.0 mi ENE 8.1 mph - 0.01 in Rain Rain
3:35 AM 42.8 °F 39.3 °F 37.4 °F 81% 30.24 in 10.0 mi NE 5.8 mph - 0.02 in Rain Light Rain
3:55 AM 42.8 °F 41.1 °F 35.6 °F 76% 30.25 in 5.0 mi ENE 3.5 mph - 0.06 in Rain Rain
4:15 AM 42.8 °F 40.1 °F 35.6 °F 76% 30.26 in 7.0 mi NNE 4.6 mph - 0.01 in Rain Rain
4:55 AM 42.8 °F 38.0 °F 35.6 °F 76% 30.24 in 7.0 mi ENE 8.1 mph - 0.03 in Rain Light Rain
5:15 AM 42.8 °F 40.1 °F 35.6 °F 76% 30.26 in 10.0 mi NNE 4.6 mph - 0.01 in Rain Light Rain
5:55 AM 42.8 °F 40.1 °F 35.6 °F 76% 30.25 in 10.0 mi NE 4.6 mph - 0.01 in   Light Drizzle
6:15 AM 42.8 °F - 35.6 °F 76% 30.26 in 10.0 mi Calm Calm - N/A Rain Light Rain
6:35 AM 42.8 °F 41.1 °F 35.6 °F 76% 30.27 in 10.0 mi ENE 3.5 mph - N/A   Light Drizzle
6:55 AM 42.8 °F 41.1 °F 37.4 °F 81% 30.26 in 10.0 mi East 3.5 mph - N/A   Drizzle
7:15 AM 42.8 °F 41.1 °F 37.4 °F 81% 30.26 in 10.0 mi NE 3.5 mph - N/A   Overcast
7:35 AM 42.8 °F - 35.6 °F 76% 30.26 in 10.0 mi Calm Calm - 0.01 in   Overcast
7:55 AM 42.8 °F - 35.6 °F 76% 30.25 in 10.0 mi Calm Calm - 0.01 in   Overcast
8:15 AM 42.8 °F 41.1 °F 35.6 °F 76% 30.26 in 10.0 mi NE 3.5 mph - N/A   Overcast
8:35 AM 42.8 °F 41.1 °F 37.4 °F 81% 30.25 in 10.0 mi ENE 3.5 mph - N/A   Overcast
8:55 AM 42.8 °F 41.1 °F 37.4 °F 81% 30.26 in 10.0 mi NE 3.5 mph - N/A   Overcast
9:15 AM 42.8 °F 40.1 °F 37.4 °F 81% 30.26 in 10.0 mi NNE 4.6 mph - N/A   Overcast
9:35 AM 42.8 °F 40.1 °F 37.4 °F 81% 30.26 in 10.0 mi North 4.6 mph - N/A Rain Light Rain
9:55 AM 42.8 °F 40.1 °F 37.4 °F 81% 30.26 in 10.0 mi NNE 4.6 mph - N/A   Drizzle
10:15 AM 44.6 °F 41.4 °F 37.4 °F 76% 30.27 in 10.0 mi NNE 5.8 mph - N/A   Overcast
10:35 AM 44.6 °F 41.4 °F 37.4 °F 76% 30.26 in 10.0 mi NNE 5.8 mph - N/A   Overcast
10:55 AM 44.6 °F 41.4 °F 37.4 °F 76% 30.25 in 10.0 mi NE 5.8 mph - N/A   Overcast
11:15 AM 44.6 °F 41.4 °F 37.4 °F 76% 30.23 in 10.0 mi NE 5.8 mph - N/A   Overcast
11:55 AM 44.6 °F 40.7 °F 39.2 °F 81% 30.20 in 10.0 mi ENE 6.9 mph - N/A   Overcast
12:15 PM 44.6 °F 41.4 °F 39.2 °F 81% 30.19 in 10.0 mi NE 5.8 mph - N/A   Overcast
12:35 PM 44.6 °F 43.1 °F 39.2 °F 81% 30.18 in 10.0 mi NNE 3.5 mph - N/A Rain Rain
12:55 PM 44.6 °F 43.1 °F 39.2 °F 81% 30.17 in 10.0 mi NE 3.5 mph - N/A Rain Rain
1:15 PM 44.6 °F 41.4 °F 39.2 °F 81% 30.16 in 10.0 mi NE 5.8 mph - N/A   Light Drizzle
1:35 PM 44.6 °F 43.1 °F 39.2 °F 81% 30.15 in 10.0 mi NE 3.5 mph - N/A Rain Light Rain
1:55 PM 44.6 °F 41.4 °F 39.2 °F 81% 30.14 in 10.0 mi East 5.8 mph - N/A   Light Drizzle
2:15 PM 44.6 °F 42.2 °F 39.2 °F 81% 30.14 in 10.0 mi NE 4.6 mph - N/A Rain Rain
2:35 PM 44.6 °F 42.2 °F 39.2 °F 81% 30.13 in 10.0 mi ENE 4.6 mph - 0.01 in Rain Rain
2:55 PM 44.6 °F 41.4 °F 39.2 °F 81% 30.13 in 10.0 mi ENE 5.8 mph - 0.01 in   Drizzle
3:15 PM 44.6 °F 42.2 °F 39.2 °F 81% 30.11 in 10.0 mi East 4.6 mph - N/A Rain Light Rain
3:35 PM 44.6 °F - 39.2 °F 81% 30.12 in 10.0 mi Calm Calm - N/A Rain Light Rain
3:55 PM 44.6 °F 42.2 °F 39.2 °F 81% 30.12 in 10.0 mi NNE 4.6 mph - N/A   Overcast
4:15 PM 44.6 °F - 37.4 °F 76% 30.13 in 10.0 mi Calm Calm - N/A Rain Light Rain
4:35 PM 44.6 °F 43.1 °F 37.4 °F 76% 30.14 in 10.0 mi NNW 3.5 mph - N/A   Light Drizzle
4:55 PM 44.6 °F - 37.4 °F 76% 30.13 in 7.0 mi Calm Calm - N/A Rain Rain
5:15 PM 44.6 °F 43.1 °F 37.4 °F 76% 30.13 in 3.0 mi North 3.5 mph - N/A   Light Drizzle
5:35 PM 44.6 °F - 37.4 °F 76% 30.12 in 3.0 mi Calm Calm - N/A   Light Drizzle
5:55 PM 44.6 °F - 37.4 °F 76% 30.12 in 4.0 mi Calm Calm - N/A Rain Light Rain
6:15 PM 44.6 °F 41.4 °F 37.4 °F 76% 30.12 in 3.0 mi North 5.8 mph - N/A   Haze
6:35 PM 44.6 °F - 37.4 °F 76% 30.12 in 4.0 mi Calm Calm - N/A Rain Light Rain
6:55 PM 44.6 °F - 37.4 °F 76% 30.11 in 3.0 mi Calm Calm - N/A   Light Drizzle
7:15 PM 44.6 °F - 37.4 °F 76% 30.11 in 3.0 mi Calm Calm - N/A Rain Light Rain
7:35 PM 44.6 °F 43.1 °F 37.4 °F 76% 30.13 in 4.0 mi NW 3.5 mph - N/A Rain Light Rain
7:55 PM 44.6 °F - 37.4 °F 76% 30.12 in 3.0 mi Calm Calm - 0.01 in   Light Drizzle
8:15 PM 44.6 °F - 37.4 °F 76% 30.11 in 3.0 mi Calm Calm - N/A   Haze
8:35 PM 44.6 °F - 37.4 °F 76% 30.11 in 3.0 mi Calm Calm - N/A   Light Drizzle
8:55 PM 44.6 °F 43.1 °F 37.4 °F 76% 30.11 in 3.0 mi SW 3.5 mph - N/A   Light Drizzle
9:15 PM 44.6 °F 43.1 °F 37.4 °F 76% 30.10 in 3.0 mi WSW 3.5 mph - N/A Rain Light Rain
9:35 PM 44.6 °F 43.1 °F 37.4 °F 76% 30.10 in 4.0 mi West 3.5 mph - N/A Rain Light Rain
9:55 PM 44.6 °F 41.4 °F 37.4 °F 76% 30.11 in 4.0 mi WSW 5.8 mph - 0.01 in   Light Drizzle
10:15 PM 44.6 °F 42.2 °F 37.4 °F 76% 30.09 in 4.0 mi WSW 4.6 mph - N/A   Haze
10:35 PM 44.6 °F 43.1 °F 37.4 °F 76% 30.08 in 4.0 mi WSW 3.5 mph - N/A   Haze
10:55 PM 44.6 °F - 37.4 °F 76% 30.07 in 5.0 mi Calm Calm - N/A   Haze
11:15 PM 44.6 °F - 37.4 °F 76% 30.07 in 5.0 mi Calm Calm - N/A   Haze
11:35 PM 44.6 °F - 37.4 °F 76% 30.06 in 4.0 mi Calm Calm - N/A   Haze
11:55 PM 44.6 °F 43.1 °F 37.4 °F 76% 30.06 in 2.0 mi West 3.5 mph - N/A   Haze